Location: Fours
(44.3167°N, 6.7000°E)
Time: 21:52:16
(UTC+00:00)

N. Korean satellite - Pass Details

Date: 03 October 2021
Orbit: 450 x 494 km, 97.3° (Epoch: 28 October)

Event Time Altitude Azimuth Distance (km) Brightness Sun altitude
Rises 04:27:17 0° 19° (NNE) 2,558 10.6 -12.6°
Reaches altitude 10° 04:29:27 10° 27° (NNE) 1,680 9.8 -12.3°
Maximum altitude 04:32:52 40° 98° (E) 734 8.1 -11.6°
Drops below altitude 10° 04:36:19 10° 170° (S) 1,684 9.4 -11.0°
Sets 04:38:28 0° 177° (S) 2,565 10.2 -10.6°
